DW0427 Weather Reports


Display with metric or nautical units.
time (UTC)temp
F
wind
direction
speed
MPH
gust
MPH
rain 1hr
in
rain 24hr
in
rain mn
in
humidity
%
barometer
mb
20260509164607 57 45 12.0 21.0 0.00 0.00 0.00 49 1021.2
20260509164408 57 45 12.0 21.0 0.00 0.00 0.00 50 1021.1
20260509164208 57 46 12.0 21.0 0.00 0.00 0.00 50 1021.1
20260509164008 57 46 12.0 21.0 0.00 0.00 0.00 48 1021.1
20260509163808 57 45 12.0 20.0 0.00 0.00 0.00 49 1021.2
20260509163608 57 45 12.0 22.0 0.00 0.00 0.00 50 1021.0
20260509163408 57 46 11.0 22.0 0.00 0.00 0.00 50 1021.1
20260509163208 58 46 11.0 22.0 0.00 0.00 0.00 49 1021.1
20260509163008 58 45 11.0 22.0 0.00 0.00 0.00 50 1021.0
20260509162808 58 45 11.0 22.0 0.00 0.00 0.00 51 1021.0
20260509162408 58 46 11.0 18.0 0.00 0.00 0.00 49 1021.0
20260509162208 58 45 11.0 20.0 0.00 0.00 0.00 49 1021.1
20260509162008 58 45 11.0 20.0 0.00 0.00 0.00 49 1021.0
20260509161808 58 46 11.0 20.0 0.00 0.00 0.00 51 1021.1
20260509161608 58 45 12.0 20.0 0.00 0.00 0.00 50 1021.1
20260509161208 58 45 12.0 18.0 0.00 0.00 0.00 49 1021.0
20260509161007 58 45 13.0 20.0 0.00 0.00 0.00 50 1021.1
20260509160607 58 45 12.0 20.0 0.00 0.00 0.00 50 1021.1
20260509160408 58 46 12.0 20.0 0.00 0.00 0.00 50 1021.2
20260509160208 58 45 12.0 20.0 0.00 0.00 0.00 49 1021.1
20260509160008 58 45 11.0 21.0 0.00 0.00 0.00 49 1021.3
20260509155808 58 46 11.0 21.0 0.00 0.00 0.00 47 1021.4
20260509155608 59 46 11.0 21.0 0.00 0.00 0.00 50 1021.1
20260509155408 58 45 11.0 24.0 0.00 0.00 0.00 49 1021.2
20260509155008 58 45 11.0 24.0 0.00 0.00 0.00 50 1021.0
20260509154807 59 45 11.0 24.0 0.00 0.00 0.00 50 1021.0
20260509154608 59 45 11.0 24.0 0.00 0.00 0.00 53 1021.0
20260509154208 58 45 11.0 21.0 0.00 0.00 0.00 52 1021.2
20260509154008 58 45 11.0 21.0 0.00 0.00 0.00 53 1021.1
20260509153808 58 45 11.0 21.0 0.00 0.00 0.00 51 1021.1
20260509153607 58 46 11.0 18.0 0.00 0.00 0.00 51 1021.1
20260509153407 59 45 11.0 18.0 0.00 0.00 0.00 49 1021.1
20260509153208 59 45 12.0 19.0 0.00 0.00 0.00 51 1021.0
20260509153008 59 45 12.0 19.0 0.00 0.00 0.00 49 1021.0
20260509152808 59 45 12.0 19.0 0.00 0.00 0.00 53 1021.0
20260509152608 58 45 13.0 19.0 0.00 0.00 0.00 54 1021.0
20260509152408 58 45 13.0 19.0 0.00 0.00 0.00 50 1021.1
20260509152208 58 45 13.0 20.0 0.00 0.00 0.00 50 1021.1
20260509152007 58 46 13.0 20.0 0.00 0.00 0.00 50 1021.0
20260509151408 58 45 14.0 20.0 0.00 0.00 0.00 50 1021.1
20260509151208 58 46 14.0 20.0 0.00 0.00 0.00 51 1021.1
20260509150808 58 46 13.0 24.0 0.00 0.00 0.00 51 1021.1
20260509150608 58 46 12.0 24.0 0.00 0.00 0.00 50 1021.2
20260509150408 58 46 12.0 24.0 0.00 0.00 0.00 49 1021.2
20260509150007 58 46 11.0 24.0 0.00 0.00 0.00 50 1021.2
20260509145807 58 45 11.0 18.0 0.00 0.00 0.00 52 1020.9
20260509145607 58 45 11.0 18.0 0.00 0.00 0.00 50 1021.3
20260509145407 58 45 11.0 19.0 0.00 0.00 0.00 51 1021.5
20260509145008 58 45 12.0 19.0 0.00 0.00 0.00 51 1021.4
20260509144808 58 45 12.0 19.0 0.00 0.00 0.00 51 1021.4
20260509144408 58 45 12.0 22.0 0.00 0.00 0.00 53 1021.3
20260509144208 58 45 12.0 22.0 0.00 0.00 0.00 49 1021.3
20260509144008 58 45 12.0 22.0 0.00 0.00 0.00 49 1021.3
20260509143808 58 45 12.0 22.0 0.00 0.00 0.00 49 1021.3
20260509143608 58 46 12.0 22.0 0.00 0.00 0.00 50 1021.3
20260509143207 58 46 12.0 22.0 0.00 0.00 0.00 52 1021.3
20260509143007 58 45 12.0 22.0 0.00 0.00 0.00 51 1021.3
20260509142807 58 46 12.0 22.0 0.00 0.00 0.00 53 1021.2
20260509142607 58 45 12.0 22.0 0.00 0.00 0.00 50 1021.3
20260509142407 58 46 12.0 18.0 0.00 0.00 0.00 50 1021.3
20260509142207 58 45 13.0 18.0 0.00 0.00 0.00 52 1021.2
20260509142008 58 45 13.0 18.0 0.00 0.00 0.00 49 1021.3
20260509141808 58 45 14.0 22.0 0.00 0.00 0.00 54 1021.3
20260509141608 58 45 15.0 22.0 0.00 0.00 0.00 52 1021.2
20260509141408 58 46 15.0 22.0 0.00 0.00 0.00 51 1021.3
20260509141208 57 45 15.0 22.0 0.00 0.00 0.00 50 1021.2
20260509141008 57 45 14.0 22.0 0.00 0.00 0.00 50 1021.3
20260509140808 57 45 13.0 21.0 0.00 0.00 0.00 51 1021.3
20260509140608 57 45 12.0 21.0 0.00 0.00 0.00 50 1021.2
20260509140408 58 46 11.0 21.0 0.00 0.00 0.00 50 1021.3
20260509140208 58 46 11.0 21.0 0.00 0.00 0.00 50 1021.4
20260509140008 58 45 10.0 21.0 0.00 0.00 0.00 49 1021.4
20260509135408 59 45 11.0 18.0 0.00 0.00 0.00 56 1021.4
20260509135208 58 46 11.0 18.0 0.00 0.00 0.00 52 1021.5
20260509135008 58 45 11.0 18.0 0.00 0.00 0.00 51 1021.5
20260509134808 58 46 12.0 18.0 0.00 0.00 0.00 52 1021.4
20260509134608 58 46 12.0 18.0 0.00 0.00 0.00 53 1021.4
20260509134408 58 46 12.0 19.0 0.00 0.00 0.00 52 1021.4
20260509134208 58 45 12.0 20.0 0.00 0.00 0.00 52 1021.3
20260509133608 58 46 11.0 20.0 0.00 0.00 0.00 51 1021.4
20260509133408 58 46 10.0 22.0 0.00 0.00 0.00 50 1021.4
20260509133208 58 45 10.0 22.0 0.00 0.00 0.00 51 1021.4
20260509133008 58 45 10.0 22.0 0.00 0.00 0.00 52 1021.3
20260509132608 58 45 11.0 22.0 0.00 0.00 0.00 55 1021.2
20260509132407 58 45 12.0 17.0 0.00 0.00 0.00 55 1021.3
20260509132207 58 45 13.0 17.0 0.00 0.00 0.00 54 1021.3
20260509132007 58 45 13.0 17.0 0.00 0.00 0.00 52 1021.4
20260509131807 58 45 14.0 20.0 0.00 0.00 0.00 53 1021.4
20260509131607 58 45 14.0 20.0 0.00 0.00 0.00 55 1021.4
20260509131407 57 45 14.0 20.0 0.00 0.00 0.00 55 1021.4
20260509131007 57 45 13.0 22.0 0.00 0.00 0.00 53 1021.4
20260509130608 57 45 11.0 22.0 0.00 0.00 0.00 50 1021.5
20260509130408 57 45 11.0 22.0 0.00 0.00 0.00 51 1021.5
20260509130208 57 45 12.0 21.0 0.00 0.00 0.00 52 1021.4
20260509130007 57 45 12.0 22.0 0.00 0.00 0.00 55 1021.4
20260509125407 57 46 12.0 24.0 0.00 0.00 0.00 56 1021.4
20260509125208 57 46 11.0 24.0 0.00 0.00 0.00 53 1021.4
20260509125007 57 45 11.0 24.0 0.00 0.00 0.00 55 1021.4
20260509124808 57 45 11.0 24.0 0.00 0.00 0.00 56 1021.4
20260509124408 57 45 11.0 19.0 0.00 0.00 0.00 59 1021.4
20260509124207 57 45 12.0 19.0 0.00 0.00 0.00 56 1021.4
20260509124007 57 45 12.0 19.0 0.00 0.00 0.00 57 1021.4
20260509123810 57 45 12.0 19.0 0.00 0.00 0.00 58 1021.5
20260509123608 56 46 13.0 19.0 0.00 0.00 0.00 55 1021.6
20260509123208 56 45 13.0 22.0 0.00 0.00 0.00 56 1021.6
20260509123007 56 45 13.0 22.0 0.00 0.00 0.00 57 1021.7
20260509122807 56 45 13.0 22.0 0.00 0.00 0.00 54 1021.7
20260509122607 56 46 13.0 22.0 0.00 0.00 0.00 54 1021.6
20260509122407 56 45 12.0 22.0 0.00 0.00 0.00 53 1021.8
20260509122207 56 45 12.0 19.0 0.00 0.00 0.00 54 1021.6
20260509122008 56 45 12.0 23.0 0.00 0.00 0.00 54 1021.6
20260509121808 56 45 11.0 23.0 0.00 0.00 0.00 56 1021.6
20260509121408 56 45 11.0 23.0 0.00 0.00 0.00 57 1021.6
20260509121207 56 46 12.0 23.0 0.00 0.00 0.00 57 1021.6
20260509121007 56 46 12.0 20.0 0.00 0.00 0.00 60 1021.6
20260509120807 56 46 12.0 20.0 0.00 0.00 0.00 59 1021.7
20260509120607 56 45 11.0 20.0 0.00 0.00 0.00 59 1021.7
20260509120408 56 45 11.0 20.0 0.00 0.00 0.00 57 1021.7
20260509120208 56 46 11.0 20.0 0.00 0.00 0.00 57 1021.7
20260509120008 56 45 12.0 20.0 0.00 0.00 0.00 56 1021.6
20260509115808 56 45 12.0 20.0 0.00 0.00 0.00 59 1021.8
20260509115608 56 45 13.0 20.0 0.00 0.00 0.00 60 1021.8
20260509115408 56 45 14.0 23.0 0.00 0.00 0.00 58 1021.7
20260509115208 55 45 14.0 23.0 0.00 0.00 0.00 59 1021.7
20260509114608 55 45 13.0 23.0 0.00 0.00 0.00 58 1021.8
20260509114408 55 45 12.0 22.0 0.00 0.00 0.00 58 1021.9
20260509114008 56 46 11.0 22.0 0.00 0.00 0.00 59 1021.8
20260509113807 56 45 11.0 17.0 0.00 0.00 0.00 58 1021.9
20260509113007 56 45 12.0 17.0 0.00 0.00 0.00 58 1021.9
20260509112808 56 46 12.0 17.0 0.00 0.00 0.00 61 1021.9
20260509112608 55 45 12.0 17.0 0.00 0.00 0.00 61 1021.9
20260509112408 55 45 12.0 18.0 0.00 0.00 0.00 58 1022.0
20260509112208 55 45 11.0 19.0 0.00 0.00 0.00 58 1021.9
20260509112008 55 45 11.0 19.0 0.00 0.00 0.00 58 1021.9
20260509111808 55 46 11.0 20.0 0.00 0.00 0.00 59 1021.8
20260509111608 55 46 11.0 20.0 0.00 0.00 0.00 59 1021.7
20260509111408 55 46 11.0 20.0 0.00 0.00 0.00 58 1021.8
20260509111208 55 45 12.0 20.0 0.00 0.00 0.00 60 1021.7
20260509111008 55 45 12.0 20.0 0.00 0.00 0.00 61 1021.9
20260509110807 55 45 13.0 18.0 0.00 0.00 0.00 61 1021.8
20260509110608 55 45 14.0 18.0 0.00 0.00 0.00 60 1021.8
20260509110408 55 45 14.0 21.0 0.00 0.00 0.00 60 1021.9
20260509110207 55 45 14.0 21.0 0.00 0.00 0.00 61 1021.9
20260509110008 54 45 14.0 22.0 0.00 0.00 0.00 63 1022.0
20260509105808 54 45 13.0 22.0 0.00 0.00 0.00 60 1022.0
20260509105607 54 45 12.0 22.0 0.00 0.00 0.00 60 1021.9
20260509105408 54 45 11.0 22.0 0.00 0.00 0.00 61 1022.0
20260509105208 54 45 11.0 22.0 0.00 0.00 0.00 57 1021.9
20260509105008 55 45 10.0 21.0 0.00 0.00 0.00 52 1022.0
20260509104807 55 45 10.0 20.0 0.00 0.00 0.00 56 1021.9
20260509104608 55 45 11.0 20.0 0.00 0.00 0.00 55 1021.9
20260509104408 55 46 11.0 20.0 0.00 0.00 0.00 54 1021.9
20260509104208 55 45 11.0 18.0 0.00 0.00 0.00 54 1021.9
20260509104008 55 45 12.0 18.0 0.00 0.00 0.00 57 1021.9
20260509103808 54 45 12.0 18.0 0.00 0.00 0.00 59 1022.0
20260509103408 54 46 12.0 18.0 0.00 0.00 0.00 54 1022.1
20260509103208 54 45 12.0 18.0 0.00 0.00 0.00 54 1022.1
20260509103008 54 46 12.0 18.0 0.00 0.00 0.00 53 1022.1
20260509102808 54 46 12.0 18.0 0.00 0.00 0.00 55 1022.0
20260509102407 54 45 13.0 19.0 0.00 0.00 0.00 55 1022.0
20260509102207 54 45 13.0 19.0 0.00 0.00 0.00 56 1022.2
20260509102007 53 46 13.0 20.0 0.00 0.00 0.00 55 1022.2
20260509101808 53 45 12.0 20.0 0.00 0.00 0.00 55 1022.1
20260509101608 53 45 12.0 20.0 0.00 0.00 0.00 54 1022.1
20260509101408 53 46 12.0 20.0 0.00 0.00 0.00 55 1022.2
20260509101209 54 45 11.0 20.0 0.00 0.00 0.00 54 1021.9
20260509101008 54 45 11.0 19.0 0.00 0.00 0.00 56 1021.9
20260509100808 53 45 11.0 19.0 0.00 0.00 0.00 58 1021.9
20260509100608 53 46 11.0 19.0 0.00 0.00 0.00 55 1022.0
20260509100407 54 46 11.0 19.0 0.00 0.00 0.00 58 1021.9
20260509100208 53 45 12.0 19.0 0.00 0.00 0.00 55 1022.0
20260509100008 53 45 12.0 18.0 0.00 0.00 0.00 59 1022.0
20260509095807 53 45 12.0 18.0 0.00 0.00 0.00 59 1021.9
20260509095407 53 45 11.0 18.0 0.00 0.00 0.00 59 1022.1
20260509095008 53 45 11.0 18.0 0.00 0.00 0.00 57 1021.9
20260509094808 53 45 11.0 16.0 0.00 0.00 0.00 58 1022.0
20260509094608 53 45 11.0 19.0 0.00 0.00 0.00 60 1022.0
20260509094408 53 45 11.0 19.0 0.00 0.00 0.00 59 1022.0
20260509094208 53 45 11.0 19.0 0.00 0.00 0.00 60 1022.0
20260509094008 53 45 11.0 19.0 0.00 0.00 0.00 59 1022.1
20260509093808 53 45 12.0 19.0 0.00 0.00 0.00 60 1022.0
20260509093607 53 46 12.0 18.0 0.00 0.00 0.00 59 1022.0
20260509093408 53 45 12.0 20.0 0.00 0.00 0.00 59 1022.0
20260509092808 52 45 12.0 20.0 0.00 0.00 0.00 60 1022.1
20260509092608 52 45 12.0 20.0 0.00 0.00 0.00 60 1022.1
20260509092407 52 45 12.0 19.0 0.00 0.00 0.00 60 1022.1
20260509092208 52 45 12.0 19.0 0.00 0.00 0.00 60 1022.0
20260509092008 52 45 12.0 19.0 0.00 0.00 0.00 60 1022.1
20260509091807 52 46 13.0 19.0 0.00 0.00 0.00 60 1022.2
20260509091608 52 46 13.0 21.0 0.00 0.00 0.00 61 1022.2
20260509091408 52 45 13.0 22.0 0.00 0.00 0.00 62 1022.1
20260509091008 51 45 13.0 22.0 0.00 0.00 0.00 62 1021.9
20260509090807 51 45 12.0 23.0 0.00 0.00 0.00 62 1022.0
20260509090608 51 45 12.0 23.0 0.00 0.00 0.00 62 1022.0
20260509090408 51 45 12.0 23.0 0.00 0.00 0.00 62 1022.0
20260509090208 51 46 12.0 23.0 0.00 0.00 0.00 61 1022.1
20260509090010 51 45 12.0 23.0 0.00 0.00 0.00 61 1022.0
20260509085808 51 45 12.0 21.0 0.00 0.00 0.00 64 1021.9
20260509085608 51 45 13.0 21.0 0.00 0.00 0.00 63 1021.9
20260509085407 51 46 13.0 23.0 0.00 0.00 0.00 63 1022.1
20260509085208 51 46 13.0 23.0 0.00 0.00 0.00 63 1022.0
20260509085008 51 46 14.0 23.0 0.00 0.00 0.00 66 1022.0
20260509084607 50 45 14.0 23.0 0.00 0.00 0.00 63 1022.1
20260509084408 51 45 14.0 20.0 0.00 0.00 0.00 64 1022.2
20260509084208 51 45 15.0 24.0 0.00 0.00 0.00 64 1022.3
20260509083808 50 45 14.0 24.0 0.00 0.00 0.00 64 1022.1
20260509083608 50 45 14.0 24.0 0.00 0.00 0.00 64 1022.1
20260509083408 50 46 13.0 24.0 0.00 0.00 0.00 64 1022.1
20260509083208 50 45 13.0 22.0 0.00 0.00 0.00 65 1022.1
20260509082808 50 45 12.0 20.0 0.00 0.00 0.00 65 1022.1
20260509082608 50 45 12.0 20.0 0.00 0.00 0.00 65 1022.1
20260509082408 50 45 12.0 20.0 0.00 0.00 0.00 65 1022.1
20260509082207 50 45 12.0 20.0 0.00 0.00 0.00 66 1022.1
20260509082008 50 45 11.0 20.0 0.00 0.00 0.00 66 1022.0
20260509081607 50 45 12.0 20.0 0.00 0.00 0.00 67 1022.1
20260509081408 50 46 13.0 21.0 0.00 0.00 0.00 66 1022.0
20260509081208 50 45 13.0 21.0 0.00 0.00 0.00 66 1022.1
20260509081008 49 46 13.0 21.0 0.00 0.00 0.00 67 1022.1
20260509080608 49 46 13.0 24.0 0.00 0.00 0.00 67 1022.0
20260509080407 49 45 13.0 24.0 0.00 0.00 0.00 68 1022.0
20260509080208 49 45 13.0 24.0 0.00 0.00 0.00 69 1022.2
20260509080007 49 46 12.0 24.0 0.00 0.00 0.00 69 1022.1
20260509075808 49 46 12.0 24.0 0.00 0.00 0.00 69 1022.1
20260509075608 49 46 11.0 18.0 0.00 0.00 0.00 69 1022.1
20260509075408 49 46 11.0 18.0 0.00 0.00 0.00 70 1022.0
20260509075007 48 45 10.0 18.0 0.00 0.00 0.00 70 1021.9
20260509074808 48 46 10.0 18.0 0.00 0.00 0.00 70 1021.9
20260509074608 48 45 11.0 16.0 0.00 0.00 0.00 71 1021.8
20260509074408 48 46 11.0 16.0 0.00 0.00 0.00 72 1021.9
20260509074208 48 45 11.0 16.0 0.00 0.00 0.00 72 1021.9
20260509073408 47 46 12.0 21.0 0.00 0.00 0.00 72 1021.9
20260509073208 47 45 12.0 21.0 0.00 0.00 0.00 71 1021.9
20260509073007 47 45 12.0 20.0 0.00 0.00 0.00 71 1021.9
20260509072808 47 45 12.0 20.0 0.00 0.00 0.00 71 1021.9
20260509072408 47 45 12.0 20.0 0.00 0.00 0.00 71 1021.7
20260509072207 47 45 11.0 24.0 0.00 0.00 0.00 72 1021.7
20260509072007 47 45 11.0 24.0 0.00 0.00 0.00 73 1021.6
20260509071807 47 45 11.0 24.0 0.00 0.00 0.00 72 1021.5
20260509071607 47 45 11.0 24.0 0.00 0.00 0.00 72 1021.5
20260509071208 47 45 11.0 16.0 0.00 0.00 0.00 73 1021.5
20260509071008 47 45 12.0 17.0 0.00 0.00 0.00 73 1021.5
20260509070808 47 45 12.0 18.0 0.00 0.00 0.00 74 1021.6
20260509070607 47 46 12.0 19.0 0.00 0.00 0.00 74 1021.6
20260509070408 47 45 12.0 19.0 0.00 0.00 0.00 75 1021.5
20260509070208 47 46 11.0 19.0 0.00 0.00 0.00 75 1021.6
20260509070007 46 45 11.0 19.0 0.00 0.00 0.00 75 1021.6
20260509065807 46 45 11.0 19.0 0.00 0.00 0.00 75 1021.5
20260509065407 46 45 10.0 18.0 0.00 0.00 0.00 76 1021.4
20260509065208 46 46 9.0 18.0 0.00 0.00 0.00 76 1021.4
20260509065008 46 46 9.0 18.0 0.00 0.00 0.00 76 1021.4
20260509064808 46 45 9.0 18.0 0.00 0.00 0.00 77 1021.4
20260509064608 46 45 9.0 17.0 0.00 0.00 0.00 77 1021.3
20260509064408 46 45 9.0 17.0 0.00 0.00 0.00 77 1021.4
20260509064208 46 46 9.0 17.0 0.00 0.00 0.00 77 1021.3
20260509064008 46 46 9.0 17.0 0.00 0.00 0.00 77 1021.3
20260509063808 46 45 8.0 17.0 0.00 0.00 0.00 77 1021.4
20260509063608 46 45 8.0 15.0 0.00 0.00 0.00 78 1021.3
20260509063407 46 46 8.0 15.0 0.00 0.00 0.00 78 1021.3
20260509063207 46 46 8.0 15.0 0.00 0.00 0.00 78 1021.3
20260509063007 46 46 9.0 15.0 0.00 0.00 0.00 78 1021.3
20260509062808 46 45 9.0 15.0 0.00 0.00 0.00 78 1021.3
20260509062608 46 45 9.0 15.0 0.00 0.00 0.00 78 1021.3
20260509062408 46 45 8.0 16.0 0.00 0.00 0.00 78 1021.4
20260509062208 46 46 8.0 16.0 0.00 0.00 0.00 78 1021.4
20260509062008 46 45 8.0 16.0 0.00 0.00 0.00 78 1021.5
20260509061808 46 45 7.0 16.0 0.00 0.00 0.00 78 1021.5
20260509061607 46 45 7.0 16.0 0.00 0.00 0.00 78 1021.5
20260509061407 46 45 7.0 13.0 0.00 0.00 0.00 79 1021.5
20260509061207 46 45 7.0 13.0 0.00 0.00 0.00 79 1021.4
20260509061007 46 45 7.0 13.0 0.00 0.00 0.00 79 1021.5
20260509060808 46 46 7.0 15.0 0.00 0.00 0.00 79 1021.4
20260509060608 46 45 7.0 15.0 0.00 0.00 0.00 80 1021.4
20260509060408 45 45 6.0 15.0 0.00 0.00 0.00 80 1021.4
20260509060008 45 46 6.0 15.0 0.00 0.00 0.00 81 1021.4
20260509055808 45 45 6.0 11.0 0.00 0.00 0.00 81 1021.3
20260509055608 44 45 6.0 11.0 0.00 0.00 0.00 81 1021.4
20260509055407 44 45 6.0 10.0 0.00 0.00 0.00 81 1021.4
20260509055208 44 46 6.0 12.0 0.00 0.00 0.00 81 1021.3
20260509055008 44 45 6.0 12.0 0.00 0.00 0.00 81 1021.3
20260509054807 44 46 6.0 12.0 0.00 0.00 0.00 82 1021.3
20260509054208 44 45 5.0 9.0 0.00 0.00 0.00 82 1021.3
20260509053808 44 46 4.0 9.0 0.00 0.00 0.00 82 1021.2
20260509053608 44 46 4.0 9.0 0.00 0.00 0.00 83 1021.2
20260509053408 44 45 4.0 8.0 0.00 0.00 0.00 83 1021.2
20260509053207 44 45 4.0 9.0 0.00 0.00 0.00 83 1021.2
20260509052808 44 46 3.0 9.0 0.00 0.00 0.00 83 1021.1
20260509052608 44 45 3.0 9.0 0.00 0.00 0.00 83 1021.1
20260509052408 44 46 3.0 9.0 0.00 0.00 0.00 83 1021.1
20260509052207 44 45 3.0 7.0 0.00 0.00 0.00 83 1021.0
20260509051807 43 45 2.0 6.0 0.00 0.00 0.00 84 1021.0
20260509051608 43 46 2.0 6.0 0.00 0.00 0.00 84 1021.0
20260509051408 43 45 2.0 6.0 0.00 0.00 0.00 83 1021.0
20260509051208 43 45 2.0 6.0 0.00 0.00 0.00 83 1021.1
20260509051008 43 45 2.0 6.0 0.00 0.00 0.00 83 1021.1
20260509050808 43 45 2.0 6.0 0.00 0.00 0.00 83 1021.0
20260509050207 43 45 3.0 4.0 0.00 0.00 0.00 83 1021.0
20260509050008 43 45 3.0 6.0 0.00 0.00 0.00 83 1020.9
20260509045808 43 45 4.0 7.0 0.00 0.00 0.00 83 1020.9
20260509045608 43 46 4.0 7.0 0.00 0.00 0.00 83 1020.9
20260509045408 43 45 4.0 7.0 0.00 0.00 0.00 83 1020.9
20260509045208 43 45 4.0 7.0 0.00 0.00 0.00 83 1020.8
20260509045008 43 46 4.0 7.0 0.00 0.00 0.00 83 1020.8
20260509044808 43 46 4.0 7.0 0.00 0.00 0.00 83 1020.7
20260509044608 43 46 4.0 8.0 0.00 0.00 0.00 83 1020.7
20260509044208 43 46 4.0 8.0 0.00 0.00 0.00 83 1020.8
20260509044008 43 46 4.0 8.0 0.00 0.00 0.00 83 1020.6
20260509043808 43 46 4.0 8.0 0.00 0.00 0.00 83 1020.7
20260509043608 43 45 3.0 7.0 0.00 0.00 0.00 83 1020.7
20260509043407 43 45 3.0 7.0 0.00 0.00 0.00 83 1020.6
20260509043208 43 46 3.0 7.0 0.00 0.00 0.00 83 1020.5
20260509042808 43 45 3.0 7.0 0.00 0.00 0.00 82 1020.6
20260509042607 43 45 3.0 7.0 0.00 0.00 0.00 83 1020.6
20260509042407 43 45 3.0 6.0 0.00 0.00 0.00 82 1020.5
20260509042208 43 45 3.0 6.0 0.00 0.00 0.00 82 1020.6
20260509042008 43 45 3.0 6.0 0.00 0.00 0.00 82 1020.6
20260509041808 43 45 3.0 6.0 0.00 0.00 0.00 82 1020.6
20260509041608 43 45 3.0 6.0 0.00 0.00 0.00 82 1020.6
20260509041408 43 46 3.0 7.0 0.00 0.00 0.00 82 1020.5
20260509041208 43 46 3.0 7.0 0.00 0.00 0.00 82 1020.5
20260509041007 43 45 3.0 7.0 0.00 0.00 0.00 82 1020.5
20260509040808 43 45 3.0 7.0 0.00 0.00 0.00 82 1020.6
20260509040607 43 46 3.0 7.0 0.00 0.00 0.00 82 1020.5
20260509040408 43 46 3.0 7.0 0.00 0.00 0.00 82 1020.5
20260509040207 43 46 2.0 6.0 0.00 0.00 0.00 82 1020.5
20260509040008 43 45 2.0 6.0 0.00 0.00 0.00 81 1020.5
20260509035807 43 46 2.0 6.0 0.00 0.00 0.00 81 1020.5
20260509035623 43 45 2.0 6.0 0.00 0.00 0.00 81 1020.5
20260509035208 43 45 3.0 6.0 0.00 0.00 0.00 81 1020.6
20260509035007 43 45 3.0 6.0 0.00 0.00 0.00 81 1020.6
20260509034808 44 45 3.0 8.0 0.00 0.00 0.00 81 1020.6
20260509034608 44 45 3.0 8.0 0.00 0.00 0.00 81 1020.6
20260509034408 44 46 3.0 8.0 0.00 0.00 0.00 81 1020.6
20260509034208 44 46 3.0 8.0 0.00 0.00 0.00 81 1020.6
20260509033807 44 45 3.0 8.0 0.00 0.00 0.00 80 1020.5
20260509033608 44 45 3.0 8.0 0.00 0.00 0.00 80 1020.5
20260509033408 44 46 3.0 8.0 0.00 0.00 0.00 80 1020.5
20260509033008 44 46 3.0 7.0 0.00 0.00 0.00 80 1020.5
20260509032808 44 46 3.0 7.0 0.00 0.00 0.00 80 1020.5
20260509032607 44 45 3.0 6.0 0.00 0.00 0.00 80 1020.6
20260509032407 44 45 4.0 6.0 0.00 0.00 0.00 80 1020.6
20260509032207 44 45 4.0 9.0 0.00 0.00 0.00 80 1020.5
20260509032007 44 45 4.0 9.0 0.00 0.00 0.00 80 1020.4
20260509031808 44 46 3.0 9.0 0.00 0.00 0.00 80 1020.4
20260509031608 44 46 3.0 9.0 0.00 0.00 0.00 80 1020.4
20260509031408 44 46 3.0 9.0 0.00 0.00 0.00 80 1020.3
20260509031208 44 46 3.0 8.0 0.00 0.00 0.00 80 1020.4
20260509031008 44 46 4.0 8.0 0.00 0.00 0.00 80 1020.3
20260509030807 44 46 4.0 7.0 0.00 0.00 0.00 80 1020.5
20260509030607 45 46 4.0 8.0 0.00 0.00 0.00 80 1020.5
20260509030208 45 45 5.0 8.0 0.00 0.00 0.00 80 1020.5
20260509030008 45 45 5.0 8.0 0.00 0.00 0.00 80 1020.5
20260509025808 45 46 5.0 11.0 0.00 0.00 0.00 80 1020.5
20260509025408 45 46 5.0 11.0 0.00 0.00 0.00 81 1020.3
20260509025207 45 45 5.0 12.0 0.00 0.00 0.00 81 1020.3
20260509025008 45 46 5.0 12.0 0.00 0.00 0.00 81 1020.3
20260509024808 45 45 4.0 12.0 0.00 0.00 0.00 81 1020.3
20260509024408 45 46 4.0 12.0 0.00 0.00 0.00 81 1020.4
20260509024008 45 45 5.0 10.0 0.00 0.00 0.00 81 1020.4
20260509023808 45 46 5.0 10.0 0.00 0.00 0.00 81 1020.4
20260509023608 45 45 5.0 10.0 0.00 0.00 0.00 81 1020.5
20260509023407 45 46 5.0 10.0 0.00 0.00 0.00 81 1020.5
20260509023207 45 45 5.0 10.0 0.00 0.00 0.00 81 1020.5
20260509023008 45 46 5.0 10.0 0.00 0.00 0.00 82 1020.5
20260509022808 46 46 4.0 10.0 0.00 0.00 0.00 82 1020.5
20260509022607 45 45 4.0 10.0 0.00 0.00 0.00 82 1020.5
20260509022408 45 45 4.0 10.0 0.00 0.00 0.00 82 1020.5
20260509022207 45 45 5.0 9.0 0.00 0.00 0.00 82 1020.4
20260509022007 46 45 5.0 9.0 0.00 0.00 0.00 82 1020.3
20260509021808 46 46 5.0 11.0 0.00 0.00 0.00 82 1020.4
20260509021608 46 46 5.0 12.0 0.00 0.00 0.00 83 1020.5
20260509021408 46 46 5.0 12.0 0.00 0.00 0.00 83 1020.3
20260509021207 46 45 4.0 12.0 0.00 0.00 0.00 83 1020.4
20260509020807 46 46 4.0 12.0 0.00 0.00 0.00 83 1020.3
20260509020607 45 46 3.0 8.0 0.00 0.00 0.00 83 1020.3
20260509020407 45 46 3.0 8.0 0.00 0.00 0.00 83 1020.3
20260509020207 45 46 3.0 8.0 0.00 0.00 0.00 83 1020.3
20260509020007 45 45 3.0 7.0 0.00 0.00 0.00 83 1020.2
20260509015808 45 45 3.0 7.0 0.00 0.00 0.00 83 1020.2
20260509015608 45 46 3.0 7.0 0.00 0.00 0.00 83 1020.2
20260509015208 45 45 3.0 6.0 0.00 0.00 0.00 82 1020.3
20260509015008 45 45 3.0 6.0 0.00 0.00 0.00 82 1020.2
20260509014808 45 45 3.0 6.0 0.00 0.00 0.00 82 1020.2
20260509014608 45 45 3.0 7.0 0.00 0.00 0.00 82 1020.2
20260509014008 45 45 2.0 8.0 0.00 0.00 0.00 81 1020.2
20260509013808 46 45 2.0 8.0 0.00 0.00 0.00 81 1020.1
20260509013408 46 45 2.0 4.0 0.00 0.00 0.00 81 1020.2
20260509013208 46 45 2.0 5.0 0.00 0.00 0.00 80 1020.2
20260509013007 46 45 3.0 5.0 0.00 0.00 0.00 80 1020.1
20260509012807 46 45 3.0 5.0 0.00 0.00 0.00 80 1020.1
20260509012607 46 45 3.0 5.0 0.00 0.00 0.00 80 1020.1
20260509012407 46 46 3.0 6.0 0.00 0.00 0.00 79 1020.1
20260509012207 46 46 4.0 7.0 0.00 0.00 0.00 79 1020.1
20260509012008 46 46 4.0 7.0 0.00 0.00 0.00 79 1020.0
20260509011807 46 46 4.0 7.0 0.00 0.00 0.00 78 1020.0
20260509011607 46 46 4.0 7.0 0.00 0.00 0.00 78 1020.0
20260509011207 46 45 5.0 8.0 0.00 0.00 0.00 78 1020.0
20260509011007 46 46 5.0 8.0 0.00 0.00 0.00 78 1020.0
20260509010807 46 45 5.0 9.0 0.00 0.00 0.00 78 1020.0
20260509010607 46 46 5.0 10.0 0.00 0.00 0.00 78 1020.0
20260509010407 46 46 5.0 10.0 0.00 0.00 0.00 78 1019.9
20260509010207 46 46 5.0 10.0 0.00 0.00 0.00 78 1020.0
20260509010008 46 46 5.0 10.0 0.00 0.00 0.00 78 1020.0
20260509005807 46 46 5.0 10.0 0.00 0.00 0.00 78 1019.9
20260509005607 46 45 5.0 9.0 0.00 0.00 0.00 78 1019.9
20260509005407 46 45 5.0 9.0 0.00 0.00 0.00 77 1019.9
20260509005008 46 45 4.0 8.0 0.00 0.00 0.00 78 1019.9
20260509004808 46 46 4.0 8.0 0.00 0.00 0.00 77 1020.0
20260509004608 46 45 5.0 8.0 0.00 0.00 0.00 77 1019.8
20260509004208 47 46 5.0 8.0 0.00 0.00 0.00 77 1019.8
20260509004008 47 45 5.0 9.0 0.00 0.00 0.00 77 1019.8
20260509003808 47 46 5.0 9.0 0.00 0.00 0.00 77 1019.8
20260509003408 47 45 5.0 10.0 0.00 0.00 0.00 77 1019.9
20260509002607 47 45 5.0 9.0 0.00 0.00 0.00 77 1019.9
20260509002408 47 45 5.0 9.0 0.00 0.00 0.00 77 1019.8
20260509002008 47 45 5.0 12.0 0.00 0.00 0.00 77 1019.9
20260509001808 47 45 5.0 12.0 0.00 0.00 0.00 77 1019.9
20260509001007 47 46 6.0 10.0 0.00 0.00 0.00 77 1019.8
20260509000808 47 46 6.0 10.0 0.00 0.00 0.00 77 1019.8
20260509000410 47 45 6.0 10.0 0.00 0.00 0.00 77 1019.8
20260509000208 47 46 6.0 10.0 0.00 0.00 0.00 77 1019.9
20260509000007 48 46 6.0 10.0 0.00 0.00 0.00 77 1019.8
20260508235407 48 45 5.0 9.0 0.00 0.00 0.00 77 1019.6
20260508235207 47 45 5.0 9.0 0.00 0.00 0.00 77 1019.6
20260508235008 47 45 5.0 8.0 0.00 0.00 0.00 77 1019.6
20260508234607 48 45 6.0 9.0 0.00 0.00 0.00 77 1019.6
20260508234407 48 46 6.0 9.0 0.00 0.00 0.00 77 1019.6
20260508234008 48 45 6.0 12.0 0.00 0.00 0.00 77 1019.6
20260508233808 48 45 5.0 12.0 0.00 0.00 0.00 77 1019.6
20260508233608 48 45 5.0 12.0 0.00 0.00 0.00 77 1019.5
20260508233407 48 46 5.0 12.0 0.00 0.00 0.00 78 1019.5
20260508233208 48 46 5.0 11.0 0.00 0.00 0.00 78 1019.5
20260508233008 48 46 5.0 9.0 0.00 0.00 0.00 78 1019.5
20260508232808 47 45 5.0 9.0 0.00 0.00 0.00 78 1019.5
20260508232207 48 45 5.0 7.0 0.00 0.00 0.00 78 1019.6
20260508232007 48 46 4.0 7.0 0.00 0.00 0.00 78 1019.5
20260508231807 48 45 4.0 7.0 0.00 0.00 0.00 78 1019.5
20260508231607 48 46 4.0 7.0 0.00 0.00 0.00 78 1019.6
20260508231407 48 45 4.0 8.0 0.00 0.00 0.00 78 1019.5
20260508231207 48 45 4.0 8.0 0.00 0.00 0.00 78 1019.6
20260508230808 48 46 4.0 8.0 0.00 0.00 0.00 79 1019.5
20260508230407 48 46 4.0 6.0 0.00 0.00 0.00 79 1019.5
20260508230207 48 45 4.0 9.0 0.00 0.00 0.00 79 1019.5
20260508230007 48 46 5.0 9.0 0.00 0.00 0.00 78 1019.5
20260508225608 48 46 5.0 11.0 0.00 0.00 0.00 78 1019.5
20260508225408 48 46 5.0 11.0 0.00 0.00 0.00 78 1019.5
20260508224808 49 46 5.0 11.0 0.00 0.00 0.00 78 1019.5
20260508224408 49 46 5.0 10.0 0.00 0.00 0.00 79 1019.4
20260508224207 49 46 5.0 9.0 0.00 0.00 0.00 79 1019.4
20260508224008 49 45 5.0 9.0 0.00 0.00 0.00 79 1019.4
20260508223808 49 46 5.0 9.0 0.00 0.00 0.00 79 1019.4
20260508223608 49 46 5.0 9.0 0.00 0.00 0.00 79 1019.5
20260508223407 49 45 5.0 12.0 0.00 0.00 0.00 80 1019.4
20260508223007 49 45 5.0 12.0 0.00 0.00 0.00 80 1019.4
20260508222808 49 45 5.0 12.0 0.00 0.00 0.00 80 1019.3
20260508222608 49 46 5.0 12.0 0.00 0.00 0.00 80 1019.4
20260508222408 49 45 5.0 12.0 0.00 0.00 0.00 80 1019.4
20260508222007 49 46 6.0 9.0 0.00 0.00 0.00 80 1019.3
20260508221807 50 46 6.0 12.0 0.00 0.00 0.00 80 1019.3
20260508221608 50 46 6.0 12.0 0.00 0.00 0.00 80 1019.2
20260508221407 50 45 6.0 12.0 0.00 0.00 0.00 80 1019.2
20260508221209 50 46 6.0 12.0 0.00 0.00 0.00 80 1019.2
20260508221007 50 45 5.0 12.0 0.00 0.00 0.00 80 1019.2
20260508220808 50 45 5.0 12.0 0.00 0.00 0.00 80 1019.1
20260508220608 50 45 5.0 12.0 0.00 0.00 0.00 80 1019.2
20260508220408 50 46 5.0 10.0 0.00 0.00 0.00 80 1019.1
20260508220208 50 45 5.0 10.0 0.00 0.00 0.00 80 1019.2
20260508220007 50 46 5.0 9.0 0.00 0.00 0.00 80 1019.2
20260508215607 51 46 6.0 10.0 0.00 0.00 0.00 80 1019.2
20260508215407 51 45 6.0 10.0 0.00 0.00 0.00 80 1019.3
20260508215208 51 45 6.0 10.0 0.00 0.00 0.00 80 1019.3
20260508215007 51 46 5.0 10.0 0.00 0.00 0.00 80 1019.2
20260508214808 51 46 5.0 10.0 0.00 0.00 0.00 80 1019.3
20260508214408 51 46 4.0 10.0 0.00 0.00 0.00 80 1019.3
20260508214207 51 46 4.0 10.0 0.00 0.00 0.00 80 1019.2
20260508214008 51 45 4.0 8.0 0.00 0.00 0.00 80 1019.3
20260508213808 51 45 4.0 7.0 0.00 0.00 0.00 80 1019.3
20260508213608 51 45 4.0 7.0 0.00 0.00 0.00 79 1019.2
20260508213407 51 46 4.0 8.0 0.00 0.00 0.00 79 1019.2
20260508213207 51 45 4.0 9.0 0.00 0.00 0.00 80 1019.1
20260508213007 51 46 4.0 9.0 0.00 0.00 0.00 80 1019.1
20260508212807 51 46 4.0 9.0 0.00 0.00 0.00 79 1019.0
20260508212207 51 45 5.0 7.0 0.00 0.00 0.00 79 1019.0
20260508211607 51 46 5.0 8.0 0.00 0.00 0.00 79 1019.0
20260508211407 52 46 4.0 8.0 0.00 0.00 0.00 79 1019.0
20260508211207 52 46 4.0 8.0 0.00 0.00 0.00 79 1018.9
20260508210807 52 45 4.0 8.0 0.00 0.00 0.00 79 1018.9
20260508210607 52 46 4.0 6.0 0.00 0.00 0.00 79 1019.0
20260508210407 52 46 4.0 7.0 0.00 0.00 0.00 79 1018.9
20260508210208 52 46 4.0 7.0 0.00 0.00 0.00 79 1018.9
20260508205808 52 45 4.0 7.0 0.00 0.00 0.00 79 1018.8
20260508205408 52 46 4.0 7.0 0.00 0.00 0.00 79 1018.7
20260508205208 52 46 4.0 7.0 0.00 0.00 0.00 79 1018.7
20260508205007 52 46 4.0 7.0 0.00 0.00 0.00 79 1018.7
20260508204807 52 46 4.0 7.0 0.00 0.00 0.00 79 1018.6
20260508204607 52 46 4.0 7.0 0.00 0.00 0.00 79 1018.6
20260508204407 52 46 4.0 7.0 0.00 0.00 0.00 79 1018.5
20260508204207 52 46 5.0 8.0 0.00 0.00 0.00 79 1018.5
20260508204007 52 46 5.0 8.0 0.00 0.00 0.00 79 1018.5
20260508203808 52 46 5.0 8.0 0.00 0.00 0.00 79 1018.5
20260508203608 52 45 5.0 8.0 0.00 0.00 0.00 79 1018.5
20260508203407 52 46 6.0 10.0 0.00 0.00 0.00 79 1018.5
20260508203207 52 46 6.0 10.0 0.00 0.00 0.00 79 1018.4
20260508203008 52 45 6.0 10.0 0.00 0.00 0.00 79 1018.3
20260508202808 52 46 6.0 10.0 0.00 0.00 0.00 79 1018.3
20260508202408 52 46 6.0 9.0 0.00 0.00 0.00 79 1018.2
20260508202207 52 46 6.0 9.0 0.00 0.00 0.00 79 1018.1
20260508202007 52 45 6.0 9.0 0.00 0.00 0.00 80 1018.2
20260508201808 52 46 6.0 9.0 0.00 0.00 0.00 79 1018.1
20260508201607 52 45 6.0 9.0 0.00 0.00 0.00 80 1018.2
20260508201408 52 46 6.0 9.0 0.00 0.00 0.00 80 1018.1
20260508201207 52 46 5.0 9.0 0.00 0.00 0.00 80 1018.0
20260508200807 52 45 5.0 9.0 0.00 0.00 0.00 79 1017.9
20260508200608 52 45 5.0 9.0 0.00 0.00 0.00 79 1017.9
20260508200407 52 45 5.0 9.0 0.00 0.00 0.00 79 1017.8
20260508200208 52 46 5.0 10.0 0.00 0.00 0.00 79 1017.7
20260508200007 52 46 4.0 10.0 0.00 0.00 0.00 79 1017.7
20260508195807 52 46 4.0 10.0 0.00 0.00 0.00 79 1017.7
20260508195608 52 45 4.0 10.0 0.00 0.00 0.00 79 1017.6
20260508195408 52 46 4.0 10.0 0.00 0.00 0.00 79 1017.6
20260508195007 52 46 4.0 7.0 0.00 0.00 0.00 79 1017.5
20260508194807 52 46 4.0 7.0 0.00 0.00 0.00 79 1017.5
20260508194607 52 46 4.0 7.0 0.00 0.00 0.00 79 1017.6
20260508194408 52 45 4.0 7.0 0.00 0.00 0.00 79 1017.6